User: anonymous   Login
Location: Unspecified
(0.0000°N, 0.0000°E)
Time: 19:25:51
(UTC+00:00)
Language:

POLYITAN 1 - Orbit

View from above orbital plane
View from above orbital plane
View from above satellite
View from above satellite

Ground track
Ground track

The orbit data is extracted from the following two-line orbital elements,

1 40042U 14033AJ  18350.71897272 +.00000281 +00000-0 +36279-4 0  9993
2 40042 097.9127 265.9229 0013582 297.4470 062.5365 14.88527529243359
Epoch (UTC): 16 December 2018 17:15:19
Eccentricity: 0.0013582
inclination: 97.9127°
perigee height: 593 km
apogee height: 612 km
right ascension of ascending node: 265.9229°
argument of perigee: 297.4470°
revolutions per day: 14.88527529
mean anomaly at epoch: 62.5365°
orbit number at epoch: 24335

The dashed part of the orbit path shows where the satellite is in the earth's shadow,  

DLR